User: anonymous
Location: Rehoboth Beach
(38.7438°N, 75.1341°W)
Time: 00:23:01
(UTC-04:00)
Language:

Cosmos 1452 Rocket - Orbit

View from above orbital plane
View from above orbital plane
View from above satellite
View from above satellite

Ground track
Ground track

The orbit data is extracted from the following two-line orbital elements,

1 13992U 83031B   14244.09685848  .00000107  00000-0  46083-4 0  4912
2 13992 074.0522 077.7721 0005842 307.5598 186.7192 14.35764652642383
Epoch (UTC): 01 September 2014 02:19:28
Eccentricity: 0.0005842
inclination: 74.0522°
perigee height: 768 km
apogee height: 777 km
right ascension of ascending node: 77.7721°
argument of perigee: 307.5598°
revolutions per day: 14.35764652
mean anomaly at epoch: 186.7192°
orbit number at epoch: 64238

The dashed part of the orbit path shows where the satellite is in the earth's shadow,  

DLR